Change the Weather History Date:

Sunday, November 20, 2011

  Actual Average Record
Temperature  
Mean Temperature 46 °F -  
Max Temperature 53 °F 50 °F 74 °F (1930)
Min Temperature 39 °F 32 °F 6 °F (1914)
Degree Days  
Heating Degree Days 19    
Moisture  
Dew Point 37 °F    
Average Humidity 76    
Maximum Humidity 87    
Minimum Humidity 66    
Precipitation  
Precipitation 0.00 in - - ()
Sea Level Pressure  
Sea Level Pressure 30.17 in    
Wind  
Wind Speed 14 mph (NNW)    
Max Wind Speed 22 mph    
Max Gust Speed 29 mph    
Visibility 10 miles    
Events      
Averages and records for this station are not official NWS values.
T = Trace of Precipitation, MM = Missing Value Source: NWS Daily Summary

Daily Weather History Graph

Daily Weather History Graph

Search for Another Location

Airport or City:

Trip Planner

Search our weather history database for the weather conditions in past years. The results will help you decide how hot, cold, wet, or windy it might be!

Date:

Astronomy

Nov. 20, 2011 Rise Set
Actual Time 6:47 AM CST 4:32 PM CST
Civil Twilight 6:17 AM CST 5:02 PM CST
Nautical Twilight 5:44 AM CST 5:35 PM CST
Astronomical Twilight 5:11 AM CST 6:08 PM CST
Moon 1:13 AM CST (11/20) 1:23 PM CST (11/20)
Length of Visible Light 10h 44m
Length of Day
9h 45m
Waning Crescent, 27% of the Moon is Illuminated
Nov 20
Waning Crescent
Nov 25
New
Dec 2
First Quarter
Dec 10
Full
Dec 17
Last Quarter

Hourly Weather History & Observations

Time (CST) Temp. Windchill Dew Point Humidity Pressure Visibility Wind Dir Wind Speed Gust Speed Precip Events Conditions
12:15 AM 53.6 °F - 46.4 °F 77% 29.95 in 10.0 mi West 21.9 mph 25.3 mph N/A   Overcast
12:35 AM 51.8 °F - 44.6 °F 76% 29.97 in 10.0 mi West 20.7 mph 28.8 mph N/A   Mostly Cloudy
12:55 AM 50.0 °F - 44.6 °F 82% 29.98 in 10.0 mi West 20.7 mph - N/A   Clear
1:15 AM 48.2 °F - 42.8 °F 82% 29.99 in 10.0 mi West 17.3 mph 23.0 mph N/A   Scattered Clouds
1:35 AM 44.6 °F 36.4 °F 39.2 °F 81% 30.01 in 10.0 mi West 20.7 mph 28.8 mph N/A   Scattered Clouds
1:55 AM 44.6 °F 36.9 °F 39.2 °F 81% 30.03 in 10.0 mi WNW 18.4 mph 25.3 mph N/A   Mostly Cloudy
2:15 AM 42.8 °F 34.3 °F 37.4 °F 81% 30.03 in 10.0 mi WNW 19.6 mph 25.3 mph N/A   Mostly Cloudy
2:35 AM 42.8 °F 34.8 °F 37.4 °F 81% 30.06 in 10.0 mi WNW 17.3 mph 24.2 mph N/A   Overcast
2:55 AM 41.0 °F 33.1 °F 35.6 °F 81% 30.06 in 10.0 mi NW 15.0 mph 23.0 mph N/A   Scattered Clouds
3:15 AM 41.0 °F 33.1 °F 35.6 °F 81% 30.07 in 10.0 mi NW 15.0 mph - N/A   Scattered Clouds
3:35 AM 41.0 °F 32.8 °F 35.6 °F 81% 30.07 in 10.0 mi WNW 16.1 mph - N/A   Scattered Clouds
3:55 AM 39.2 °F 31.2 °F 35.6 °F 87% 30.09 in 10.0 mi WNW 13.8 mph - N/A   Clear
4:15 AM 39.2 °F 30.8 °F 35.6 °F 87% 30.09 in 10.0 mi NW 15.0 mph - N/A   Clear
4:35 AM 39.2 °F 31.2 °F 35.6 °F 87% 30.09 in 10.0 mi NW 13.8 mph 19.6 mph N/A   Clear
4:55 AM 39.2 °F 30.8 °F 35.6 °F 87% 30.10 in 10.0 mi NW 15.0 mph - N/A   Clear
5:15 AM 39.2 °F 31.6 °F 35.6 °F 87% 30.11 in 10.0 mi NW 12.7 mph - N/A   Clear
5:35 AM 39.2 °F 30.8 °F 35.6 °F 87% 30.10 in 10.0 mi NNW 15.0 mph - N/A   Clear
5:55 AM 39.2 °F 32.0 °F 35.6 °F 87% 30.14 in 10.0 mi NW 11.5 mph - N/A   Scattered Clouds
6:15 AM 39.2 °F 35.0 °F 35.6 °F 87% 30.15 in 10.0 mi NW 5.8 mph - N/A   Overcast
6:35 AM 41.0 °F 37.1 °F 35.6 °F 81% 30.16 in 10.0 mi NNW 5.8 mph - N/A   Overcast
6:55 AM 41.0 °F 39.0 °F 35.6 °F 81% 30.17 in 10.0 mi NW 3.5 mph - N/A   Overcast
7:15 AM 41.0 °F 38.0 °F 37.4 °F 87% 30.18 in 10.0 mi NNW 4.6 mph - N/A   Overcast
7:35 AM 41.0 °F 39.0 °F 37.4 °F 87% 30.19 in 10.0 mi NW 3.5 mph - N/A   Overcast
7:55 AM 42.8 °F 41.1 °F 37.4 °F 81% 30.20 in 10.0 mi WNW 3.5 mph - N/A   Overcast
8:15 AM 42.8 °F 39.3 °F 37.4 °F 81% 30.20 in 10.0 mi NW 5.8 mph - N/A   Overcast
8:35 AM 42.8 °F 39.3 °F 37.4 °F 81% 30.21 in 10.0 mi NW 5.8 mph - N/A   Mostly Cloudy
8:55 AM 42.8 °F 38.6 °F 37.4 °F 81% 30.22 in 10.0 mi North 6.9 mph - N/A   Mostly Cloudy
9:15 AM 42.8 °F 37.5 °F 35.6 °F 76% 30.23 in 10.0 mi North 9.2 mph - N/A   Scattered Clouds
9:35 AM 42.8 °F 37.5 °F 35.6 °F 76% 30.23 in 10.0 mi North 9.2 mph - N/A   Clear
9:55 AM 42.8 °F 37.0 °F 35.6 °F 76% 30.24 in 10.0 mi North 10.4 mph - N/A   Clear
10:15 AM 44.6 °F 39.7 °F 35.6 °F 71% 30.24 in 10.0 mi North 9.2 mph - N/A   Scattered Clouds
10:35 AM 44.6 °F 38.4 °F 35.6 °F 71% 30.22 in 10.0 mi North 12.7 mph - N/A   Scattered Clouds
10:55 AM 44.6 °F 38.8 °F 35.6 °F 71% 30.21 in 10.0 mi North 11.5 mph - N/A   Clear
11:15 AM 44.6 °F 39.2 °F 35.6 °F 71% 30.22 in 10.0 mi North 10.4 mph - N/A   Clear
11:35 AM 46.4 °F 41.9 °F 35.6 °F 66% 30.22 in 10.0 mi North 9.2 mph - N/A   Clear
11:55 AM 46.4 °F 41.1 °F 35.6 °F 66% 30.22 in 10.0 mi North 11.5 mph - N/A   Scattered Clouds
12:15 PM 46.4 °F 41.1 °F 35.6 °F 66% 30.21 in 10.0 mi North 11.5 mph - N/A   Scattered Clouds
12:35 PM 46.4 °F 41.5 °F 35.6 °F 66% 30.21 in 10.0 mi NNE 10.4 mph - N/A   Clear
12:55 PM 46.4 °F 40.7 °F 35.6 °F 66% 30.20 in 10.0 mi NNE 12.7 mph - N/A   Clear
1:15 PM 46.4 °F 41.5 °F 37.4 °F 71% 30.21 in 10.0 mi NNE 10.4 mph - N/A   Clear
1:35 PM 46.4 °F 41.1 °F 37.4 °F 71% 30.22 in 10.0 mi NE 11.5 mph - N/A   Clear
1:55 PM 46.4 °F 41.9 °F 35.6 °F 66% 30.23 in 10.0 mi NNE 9.2 mph - N/A   Scattered Clouds
2:15 PM 46.4 °F 42.4 °F 35.6 °F 66% 30.23 in 10.0 mi NNE 8.1 mph - N/A   Mostly Cloudy
2:35 PM 46.4 °F 41.9 °F 35.6 °F 66% 30.24 in 10.0 mi NNE 9.2 mph - N/A   Scattered Clouds
2:55 PM 46.4 °F 42.4 °F 35.6 °F 66% 30.23 in 10.0 mi NNE 8.1 mph - N/A   Scattered Clouds
3:15 PM 46.4 °F 41.5 °F 35.6 °F 66% 30.24 in 10.0 mi North 10.4 mph - N/A   Scattered Clouds
3:35 PM 46.4 °F 40.1 °F 35.6 °F 66% 30.24 in 10.0 mi NNE 15.0 mph - N/A   Scattered Clouds
3:55 PM 46.4 °F 40.4 °F 35.6 °F 66% 30.25 in 10.0 mi NNE 13.8 mph - N/A   Mostly Cloudy
4:15 PM 46.4 °F 40.4 °F 35.6 °F 66% 30.26 in 10.0 mi NE 13.8 mph - N/A   Mostly Cloudy
4:35 PM 44.6 °F 38.1 °F 35.6 °F 71% 30.25 in 10.0 mi ENE 13.8 mph - N/A   Scattered Clouds
4:55 PM 44.6 °F 38.4 °F 35.6 °F 71% 30.25 in 10.0 mi ENE 12.7 mph - N/A   Clear
5:15 PM 44.6 °F 38.4 °F 35.6 °F 71% 30.27 in 10.0 mi NE 12.7 mph - N/A   Scattered Clouds
5:35 PM 44.6 °F 38.1 °F 37.4 °F 76% 30.26 in 10.0 mi NE 13.8 mph - N/A   Scattered Clouds
5:55 PM 42.8 °F 36.2 °F 37.4 °F 81% 30.25 in 10.0 mi ENE 12.7 mph - N/A   Mostly Cloudy
6:15 PM 42.8 °F 35.4 °F 35.6 °F 76% 30.25 in 10.0 mi NE 15.0 mph - N/A   Scattered Clouds
6:35 PM 42.8 °F 36.2 °F 35.6 °F 76% 30.26 in 10.0 mi ENE 12.7 mph - N/A   Scattered Clouds
6:55 PM 42.8 °F 35.8 °F 35.6 °F 76% 30.26 in 10.0 mi NE 13.8 mph - N/A   Overcast
7:15 PM 42.8 °F 35.8 °F 35.6 °F 76% 30.27 in 10.0 mi ENE 13.8 mph - N/A   Overcast
7:35 PM 42.8 °F 36.6 °F 35.6 °F 76% 30.26 in 10.0 mi NE 11.5 mph - N/A   Scattered Clouds
7:55 PM 42.8 °F 37.0 °F 35.6 °F 76% 30.27 in 10.0 mi ENE 10.4 mph - N/A   Mostly Cloudy
8:15 PM 42.8 °F 36.6 °F 35.6 °F 76% 30.26 in 10.0 mi NE 11.5 mph - N/A   Mostly Cloudy
8:35 PM 42.8 °F 37.5 °F 35.6 °F 76% 30.28 in 10.0 mi NE 9.2 mph - N/A   Overcast
8:55 PM 42.8 °F 41.1 °F 35.6 °F 76% 30.31 in 10.0 mi North 3.5 mph - N/A   Overcast
9:15 PM 42.8 °F 38.0 °F 37.4 °F 81% 30.28 in 10.0 mi ENE 8.1 mph - N/A   Overcast
9:35 PM 42.8 °F 38.0 °F 37.4 °F 81% 30.28 in 10.0 mi East 8.1 mph - N/A   Overcast
9:55 PM 42.8 °F 38.6 °F 37.4 °F 81% 30.28 in 10.0 mi East 6.9 mph - N/A   Overcast
10:15 PM 42.8 °F 38.0 °F 37.4 °F 81% 30.27 in 10.0 mi East 8.1 mph - N/A   Overcast
10:35 PM 42.8 °F 38.0 °F 35.6 °F 76% 30.27 in 10.0 mi ENE 8.1 mph - N/A   Overcast
10:55 PM 42.8 °F 37.5 °F 35.6 °F 76% 30.26 in 10.0 mi NE 9.2 mph - N/A   Overcast
11:15 PM 42.8 °F 38.0 °F 35.6 °F 76% 30.26 in 10.0 mi NE 8.1 mph - N/A   Overcast
11:35 PM 42.8 °F 37.0 °F 35.6 °F 76% 30.25 in 10.0 mi NE 10.4 mph - N/A   Overcast
11:55 PM 42.8 °F 37.5 °F 37.4 °F 81% 30.25 in 10.0 mi NE 9.2 mph - N/A   Overcast